Location: Bocianicha
(51.5066°N, 19.2563°E)
Time: 14:36:07
(UTC+00:00)

Cosmos 1461 - Pass Details

Date: 15 June 2025
Orbit: 444 x 542 km, 65.0° (Epoch: 18 July)

Event Time Altitude Azimuth Distance (km) Brightness Sun altitude
Rises 01:28:51 0° 320° (NW) 2,690 6.5 -6.9°
Reaches altitude 10° 01:31:08 10° 328° (NNW) 1,807 5.7 -6.6°
Maximum altitude 01:35:00 40° 39° (NE) 808 4.5 -6.3°
Drops below altitude 10° 01:38:52 10° 110° (ESE) 1,816 5.7 -5.9°
Sets 01:41:11 0° 118° (ESE) 2,706 6.5 -5.7°
